Lake Clear, NY

1:46 PM EST on February 07, 2016 (GMT -0500)
Adirondack Regional

Weather History for KSLK - May, 2015

Change the Weather History Date:

Thursday, May 21, 2015

  Actual Average Record
Temperature  
Mean Temperature 48 °F 52 °F  
Max Temperature 64 °F 65 °F 85 °F (1977)
Min Temperature 32 °F 39 °F 26 °F (1956)
Degree Days  
Heating Degree Days 17 13  
Month to date heating degree days 230 349  
Since 1 July heating degree days 9234 9120  
Cooling Degree Days 0 0  
Month to date cooling degree days 5 0  
Year to date cooling degree days 5 0  
Moisture  
Dew Point 29 °F    
Average Humidity 57    
Maximum Humidity 89    
Minimum Humidity 25    
Precipitation  
Precipitation 0.00 in 0.12 in 2.48 in (1971)
Month to date precipitation 1.48 2.19  
Year to date precipitation 5.68 11.10  
Sea Level Pressure  
Sea Level Pressure 29.89 in    
Wind  
Wind Speed 7 mph (SW)    
Max Wind Speed 17 mph    
Max Gust Speed 26 mph    
Visibility 10 miles    
Events      
T = Trace of Precipitation, MM = Missing Value Source: NWS Daily Summary

Daily Weather History Graph

Daily Weather History Graph

Search for Another Location

Airport or City:

Trip Planner

Search our weather history database for the weather conditions in past years. The results will help you decide how hot, cold, wet, or windy it might be!

Date:

Astronomy

May. 21, 2015 Rise Set
Actual Time 5:23 AM EDT 8:23 PM EDT
Civil Twilight 4:49 AM EDT 8:58 PM EDT
Nautical Twilight 4:05 AM EDT 9:42 PM EDT
Astronomical Twilight 3:13 AM EDT 10:35 PM EDT
Moon 8:41 AM EDT (5/21) 11:33 PM EDT (5/21)
Length of Visible Light 16h 08m
Length of Day
14h 59m
Waxing Crescent, 14% of the Moon is Illuminated
May 21
Waxing Crescent
May 25
First Quarter
Jun 2
Full
Jun 9
Last Quarter
Jun 16
New

Hourly Weather History & Observations

Time (EDT) Temp. Windchill Dew Point Humidity Pressure Visibility Wind Dir Wind Speed Gust Speed Precip Events Conditions
12:51 AM 33.1 °F - 28.9 °F 85% 29.96 in 10.0 mi Calm Calm - N/A   Clear
1:51 AM 33.1 °F - 30.0 °F 89% 29.96 in 10.0 mi Calm Calm - N/A   Clear
2:51 AM 32.0 °F - 28.9 °F 88% 29.95 in 10.0 mi Calm Calm - N/A   Clear
3:51 AM 34.0 °F 31.0 °F 30.0 °F 85% 29.95 in 10.0 mi SW 3.5 mph - N/A   Clear
4:51 AM 35.1 °F 29.3 °F 30.9 °F 85% 29.94 in 10.0 mi SW 6.9 mph - N/A   Clear
5:51 AM 36.0 °F 31.1 °F 32.0 °F 86% 29.95 in 10.0 mi SW 5.8 mph - N/A   Clear
6:51 AM 39.0 °F 36.8 °F 34.0 °F 82% 29.96 in 10.0 mi WSW 3.5 mph - N/A   Overcast
7:51 AM 43.0 °F 36.8 °F 33.1 °F 68% 29.96 in 10.0 mi SW 11.5 mph - N/A   Overcast
8:51 AM 48.0 °F - 30.9 °F 52% 29.94 in 10.0 mi SW 8.1 mph - N/A   Clear
9:51 AM 51.1 °F - 30.9 °F 46% 29.91 in 10.0 mi Variable 6.9 mph - N/A   Overcast
10:51 AM 53.1 °F - 30.0 °F 41% 29.90 in 10.0 mi West 5.8 mph - N/A   Overcast
11:51 AM 59.0 °F - 30.9 °F 35% 29.88 in 10.0 mi SW 13.8 mph 19.6 mph N/A   Partly Cloudy
12:51 PM 60.1 °F - 28.9 °F 31% 29.87 in 10.0 mi SW 15.0 mph 19.6 mph N/A   Clear
1:51 PM 61.0 °F - 28.0 °F 29% 29.85 in 10.0 mi West 11.5 mph - N/A   Clear
2:51 PM 62.1 °F - 27.0 °F 26% 29.83 in 10.0 mi WSW 11.5 mph 18.4 mph N/A   Clear
3:51 PM 61.0 °F - 28.0 °F 29% 29.82 in 10.0 mi SW 11.5 mph 25.3 mph N/A   Scattered Clouds
4:51 PM 61.0 °F - 28.9 °F 30% 29.82 in 10.0 mi SW 11.5 mph 18.4 mph N/A   Mostly Cloudy
5:51 PM 61.0 °F - 28.9 °F 30% 29.81 in 10.0 mi WSW 10.4 mph 19.6 mph N/A   Scattered Clouds
6:51 PM 57.9 °F - 26.1 °F 30% 29.81 in 10.0 mi West 9.2 mph 17.3 mph N/A   Clear
7:51 PM 55.0 °F - 27.0 °F 34% 29.82 in 10.0 mi West 4.6 mph - N/A   Clear
8:51 PM 52.0 °F - 28.0 °F 40% 29.83 in 10.0 mi WSW 4.6 mph - N/A   Clear
9:51 PM 48.0 °F - 28.0 °F 46% 29.85 in 10.0 mi SW 4.6 mph - N/A   Clear
10:51 PM 46.9 °F - 28.0 °F 48% 29.84 in 10.0 mi SW 5.8 mph - N/A   Clear
11:51 PM 46.0 °F 44.8 °F 28.9 °F 51% 29.83 in 10.0 mi SW 3.5 mph - N/A   Mostly Cloudy